#timestamp,LO_Frequency,Hit,StdDev 
1509753615.2,286047002.6,N
1509753635.1,286047001.8,N
1509753636.0,286047001.8,N
1509753655.8,286047004.0,Y
1509753675.6,286047001.5,P
1509753695.5,286047001.4,N
1509753715.3,286047001.9,P
1509753735.2,286047002.0,Y
1509753755.9,286046998.5,P
1509753775.7,286046998.1,N
1509753795.6,286047000.5,N
1509753815.4,286047000.8,N
1509753835.2,286047001.0,N
1509753855.1,286047000.5,N
1509753856.0,286047000.5,N
1509753875.8,286047000.3,N
1509753895.7,286047000.2,N
1509753915.5,286047002.6,N
1509753935.3,286047000.7,N
1509753955.2,286047000.4,N
1509753975.0,286047000.3,N
1509753975.9,286047000.3,N
1509753995.8,286047000.3,N
1509754015.6,286047002.4,N
1509754035.4,286047002.6,N
1509754055.3,286047002.3,N
1509754075.1,286047002.5,N
1509754095.8,286047000.8,N
1509754115.7,286047001.0,N
1509754135.5,286047000.0,N
1509754155.4,286047001.2,N
1509754175.2,286047002.6,N
1509754195.0,286047000.3,N
1509754195.9,286047000.3,N
1509754215.8,286047002.1,N
1509754235.6,286047002.4,N
1509754255.4,286047003.9,Y
1509754275.3,286047001.8,P
1509754295.1,286047004.3,P
1509754315.9,286047002.2,N
1509754335.7,286047004.1,Y
1509754355.5,286047002.4,P
1509754375.4,286046999.9,N
1509754395.2,286047000.0,N
1509754415.0,286047000.4,N
1509754415.9,286047000.4,N
1509754435.8,286046998.1,N
1509754455.6,286046998.5,N
1509754475.5,286046999.4,N
1509754495.3,286046999.4,N
1509754515.1,286047001.1,N
1509754535.9,286046999.4,N
1509754555.7,286046999.2,N
1509754575.5,286046997.7,N
1509754595.4,286046999.2,N
1509754615.2,286047001.1,N
1509754635.1,286046998.2,N
1509754636.0,286046998.2,N
1509754655.8,286046998.4,N
1509754675.6,286046998.9,N
1509754695.5,286047000.8,N
1509754715.3,286047000.6,N
1509754735.2,286047002.6,N
1509754755.9,286047002.2,N
1509754775.7,286047004.4,Y
1509754795.6,286047003.5,P
1509754815.4,286047004.0,N
1509754835.2,286047002.3,N
1509754885.1,286047000.6,E
1509754895.0,286046998.3,N
1509754895.9,286046998.3,P
1509754915.8,286047000.0,P
1509754935.6,286047001.2,N
1509754955.4,286047000.9,N
1509754975.3,286047000.3,N
1509754995.1,286046999.2,N
1509755015.9,286046996.8,N
1509755035.7,286046999.5,N
1509755055.5,286046998.2,N
1509755105.4,286047000.5,E
1509755115.3,286046999.8,N
1509755135.2,286047002.4,P
1509755155.9,286047002.1,N
1509755175.7,286047000.6,N
1509755195.6,286047000.5,N
1509755215.4,286047001.1,N
1509755235.2,286046999.3,N
1509755255.1,286046998.7,N
1509755256.0,286046998.7,N
1509755275.8,286046999.4,N
1509755295.7,286046998.6,N
1509755315.5,286046998.9,N
1509755335.3,286046998.4,N
1509755355.2,286047001.2,N
1509755375.0,286046998.5,N
1509755375.9,286046998.5,N
1509755395.8,286047001.1,N
1509755415.6,286047000.8,N
1509755435.4,286047001.0,N
1509755455.3,286047001.0,N
1509755475.1,286047002.4,N
1509755495.8,286047002.7,N
1509755515.7,286047001.6,N
1509755535.5,286047002.2,N
1509755555.3,286047002.6,N
1509755575.2,286047000.2,N
1509755595.0,286047002.4,N
1509755595.9,286047002.4,N
1509755615.8,286047002.2,N
1509755635.6,286047000.1,N
1509755655.4,286047000.5,N
1509755675.3,286047000.0,N
1509755695.1,286046999.9,N
1509755715.9,286046999.8,N
1509755735.7,286047000.1,N
1509755755.5,286047002.7,N
1509755775.4,286047002.4,N
1509755795.2,286047001.6,N
1509755815.0,286047002.6,N
1509755815.9,286047002.6,N
1509755835.8,286046999.8,N
1509755855.6,286046999.7,N
1509755875.5,286046998.1,N
1509755895.3,286046998.3,N
1509755915.1,286046998.5,N
1509755935.9,286046996.5,N
1509755955.7,286046998.7,N
1509755975.6,286046998.1,N
1509755995.4,286046999.9,N
1509756015.2,286047001.2,N
1509756035.1,286047000.4,N
1509756036.0,286047000.4,N
1509756055.8,286047000.4,N
1509756075.6,286047000.9,N
1509756095.5,286047000.5,N
1509756115.3,286046999.8,N
1509756135.2,286047002.2,N
1509756155.9,286047001.8,N
1509756175.7,286047002.0,N
1509756195.6,286046999.7,N
1509756215.4,286047002.4,N
1509756235.3,286047001.7,N
1509756255.1,286047002.3,N
1509756256.0,286047002.3,N
1509756275.8,286047002.1,N
1509756295.7,286047000.1,N
1509756315.5,286047002.0,N
1509756335.3,286047001.4,N
1509756355.2,286047001.7,N
1509756375.0,286047001.4,N
1509756375.9,286047001.4,N
1509756395.8,286047004.4,N
1509756415.6,286047004.2,N
1509756435.4,286047002.1,N
1509756455.3,286046999.9,N
1509756475.1,286046998.2,N
1509756495.8,286047002.8,N
1509756515.7,286047001.6,N
1509756535.5,286047002.0,N
1509756555.4,286047002.2,N
1509756575.2,286047002.5,N
1509756595.0,286047004.4,Y
1509756595.9,286047004.4,P
1509756615.8,286047001.4,N
1509756635.6,286047004.3,P
1509756655.4,286047004.3,N
1509756675.3,286047004.4,Y
1509756695.1,286047000.8,P
1509756715.9,286046999.0,N
1509756735.7,286046999.1,N
1509756755.5,286046999.2,N
1509756775.4,286046997.1,N
1509756795.2,286046999.4,N
1509756815.0,286046999.0,N
1509756815.9,286046999.0,N
1509756835.8,286046999.2,N
1509756855.6,286046996.5,N
1509756875.5,286046996.5,N
1509756895.3,286046996.9,N
1509756915.1,286046999.0,N
1509756935.9,286046998.9,N
1509756955.7,286046998.8,N
1509756975.5,286046998.4,N
1509756995.4,286047002.7,N
1509757015.2,286047000.0,N
1509757035.1,286047000.8,N
1509757036.0,286047000.8,N
1509757055.8,286046998.7,N
1509757075.6,286047000.6,N
1509757095.5,286046999.8,N
1509757115.3,286046999.8,N
1509757135.1,286047000.8,N
1509757155.9,286046998.6,N
1509757175.7,286047000.0,N
1509757195.6,286046998.7,N
